Time,TemperatureF,DewpointF,PressureIn,WindDirection,WindDirectionDegrees,WindSpeedMPH,WindSpeedGustMPH,Humidity,HourlyPrecipIn,Conditions,Clouds,dailyrainin,SoftwareType,DateUTC
2013-03-12 00:00:00,56.3,52.2,29.65,East,90,0.0,-999.0,86,-99.99,,,0.00,Acu-Link.com,2013-03-12 04:00:00,
2013-03-12 00:15:00,56.1,52.0,29.65,East,90,0.0,-999.0,86,-99.99,,,0.03,Acu-Link.com,2013-03-12 04:15:00,
2013-03-12 00:30:00,56.1,52.0,29.64,ESE,112,0.0,-999.0,86,-99.99,,,0.03,Acu-Link.com,2013-03-12 04:30:00,
2013-03-12 00:45:00,56.1,52.0,29.64,ESE,112,0.0,-999.0,86,-99.99,,,0.04,Acu-Link.com,2013-03-12 04:45:00,
2013-03-12 01:00:00,56.1,52.3,29.63,SE,135,0.0,-999.0,87,-99.99,,,0.08,Acu-Link.com,2013-03-12 05:00:00,
2013-03-12 01:15:00,56.1,52.3,29.63,SE,135,0.0,-999.0,87,-99.99,,,0.14,Acu-Link.com,2013-03-12 05:15:00,
2013-03-12 01:30:00,56.1,52.3,29.63,SSE,157,0.0,-999.0,87,-99.99,,,0.16,Acu-Link.com,2013-03-12 05:30:00,
2013-03-12 01:46:00,56.3,52.5,29.63,SW,225,0.0,-999.0,87,-99.99,,,0.18,Acu-Link.com,2013-03-12 05:46:00,
2013-03-12 02:01:00,56.5,52.7,29.62,South,180,0.0,-999.0,87,-99.99,,,0.19,Acu-Link.com,2013-03-12 06:01:00,
2013-03-12 02:16:00,56.5,52.7,29.62,SSE,157,1.1,-999.0,87,-99.99,,,0.19,Acu-Link.com,2013-03-12 06:16:00,
2013-03-12 02:46:00,56.8,53.3,29.61,East,90,0.0,-999.0,88,-99.99,,,0.20,Acu-Link.com,2013-03-12 06:46:00,
2013-03-12 03:01:00,57.0,53.5,29.61,SSE,157,1.7,-999.0,88,-99.99,,,0.21,Acu-Link.com,2013-03-12 07:01:00,
2013-03-12 03:16:00,57.0,53.5,29.60,South,180,1.7,-999.0,88,-99.99,,,0.22,Acu-Link.com,2013-03-12 07:16:00,
2013-03-12 03:31:00,57.0,53.5,29.59,South,180,1.7,-999.0,88,-99.99,,,0.24,Acu-Link.com,2013-03-12 07:31:00,
2013-03-12 03:46:00,57.2,53.7,29.58,South,180,3.2,-999.0,88,-99.99,,,0.25,Acu-Link.com,2013-03-12 07:46:00,
2013-03-12 04:17:00,57.4,53.9,29.58,West,270,1.7,-999.0,88,-99.99,,,0.26,Acu-Link.com,2013-03-12 08:17:00,
2013-03-12 04:47:00,57.4,53.9,29.58,SSW,202,1.7,-999.0,88,-99.99,,,0.27,Acu-Link.com,2013-03-12 08:47:00,
2013-03-12 05:02:00,57.6,54.1,29.58,South,180,1.1,-999.0,88,-99.99,,,0.27,Acu-Link.com,2013-03-12 09:02:00,
2013-03-12 05:17:00,57.6,54.1,29.58,WNW,292,1.7,-999.0,88,-99.99,,,0.27,Acu-Link.com,2013-03-12 09:17:00,
2013-03-12 05:33:00,57.7,54.2,29.57,WSW,247,0.0,-999.0,88,-99.99,,,0.27,Acu-Link.com,2013-03-12 09:33:00,
2013-03-12 05:48:00,57.7,54.2,29.57,SW,225,1.1,-999.0,88,-99.99,,,0.27,Acu-Link.com,2013-03-12 09:48:00,
2013-03-12 06:03:00,57.7,54.2,29.58,SW,225,0.0,-999.0,88,-99.99,,,0.27,Acu-Link.com,2013-03-12 10:03:00,
2013-03-12 06:18:00,57.7,54.2,29.59,West,270,1.1,-999.0,88,-99.99,,,0.28,Acu-Link.com,2013-03-12 10:18:00,
2013-03-12 06:33:00,57.7,54.2,29.59,SSW,202,1.7,-999.0,88,-99.99,,,0.28,Acu-Link.com,2013-03-12 10:33:00,
2013-03-12 06:48:00,57.7,54.2,29.59,South,180,1.1,-999.0,88,-99.99,,,0.28,Acu-Link.com,2013-03-12 10:48:00,
2013-03-12 07:03:00,57.7,54.2,29.59,West,270,1.1,-999.0,88,-99.99,,,0.28,Acu-Link.com,2013-03-12 11:03:00,
2013-03-12 07:18:00,57.7,54.2,29.60,South,180,0.0,-999.0,88,-99.99,,,0.28,Acu-Link.com,2013-03-12 11:18:00,
2013-03-12 07:33:00,57.7,54.2,29.60,ESE,112,0.0,-999.0,88,-99.99,,,0.28,Acu-Link.com,2013-03-12 11:33:00,
2013-03-12 07:49:00,57.6,54.1,29.61,WNW,292,0.0,-999.0,88,-99.99,,,0.28,Acu-Link.com,2013-03-12 11:49:00,
2013-03-12 08:04:00,57.6,54.1,29.62,East,90,0.0,-999.0,88,-99.99,,,0.28,Acu-Link.com,2013-03-12 12:04:00,
2013-03-12 08:19:00,57.4,53.9,29.62,WNW,292,2.7,-999.0,88,-99.99,,,0.28,Acu-Link.com,2013-03-12 12:19:00,
2013-03-12 08:34:00,55.4,51.6,29.63,East,90,0.0,-999.0,87,-99.99,,,0.28,Acu-Link.com,2013-03-12 12:34:00,
2013-03-12 08:49:00,54.7,50.6,29.64,NW,315,0.0,-999.0,86,-99.99,,,0.28,Acu-Link.com,2013-03-12 12:49:00,
2013-03-12 09:04:00,54.3,49.2,29.65,WNW,292,1.7,-999.0,83,-99.99,,,0.28,Acu-Link.com,2013-03-12 13:04:00,
2013-03-12 09:19:00,53.8,48.1,29.66,SW,225,2.7,-999.0,81,-99.99,,,0.28,Acu-Link.com,2013-03-12 13:19:00,
2013-03-12 09:34:00,53.4,47.4,29.67,West,270,2.2,-999.0,80,-99.99,,,0.28,Acu-Link.com,2013-03-12 13:34:00,
2013-03-12 09:49:00,53.1,46.8,29.67,West,270,0.0,-999.0,79,-99.99,,,0.28,Acu-Link.com,2013-03-12 13:49:00,
2013-03-12 10:04:00,54.0,47.0,29.68,West,270,0.0,-999.0,77,-99.99,,,0.28,Acu-Link.com,2013-03-12 14:04:00,
2013-03-12 10:20:00,53.6,45.2,29.68,NE,45,1.7,-999.0,73,-99.99,,,0.28,Acu-Link.com,2013-03-12 14:20:00,
2013-03-12 10:50:00,54.7,45.1,29.69,NW,315,2.7,-999.0,70,-99.99,,,0.28,Acu-Link.com,2013-03-12 14:50:00,
2013-03-12 11:05:00,55.8,45.8,29.68,SSW,202,1.7,-999.0,69,-99.99,,,0.28,Acu-Link.com,2013-03-12 15:05:00,
2013-03-12 11:20:00,58.3,45.3,29.68,WSW,247,3.2,-999.0,62,-99.99,,,0.28,Acu-Link.com,2013-03-12 15:20:00,
2013-03-12 11:35:00,57.7,45.6,29.68,West,270,0.0,-999.0,64,-99.99,,,0.28,Acu-Link.com,2013-03-12 15:35:00,
2013-03-12 11:50:00,59.4,45.9,29.68,ESE,112,0.0,-999.0,61,-99.99,,,0.28,Acu-Link.com,2013-03-12 15:50:00,
2013-03-12 12:05:00,60.3,45.0,29.67,West,270,2.7,-999.0,57,-99.99,,,0.28,Acu-Link.com,2013-03-12 16:05:00,
2013-03-12 12:20:00,61.2,43.9,29.67,West,270,1.7,-999.0,53,-99.99,,,0.28,Acu-Link.com,2013-03-12 16:20:00,
2013-03-12 12:36:00,63.7,44.7,29.67,WSW,247,1.7,-999.0,50,-99.99,,,0.28,Acu-Link.com,2013-03-12 16:36:00,
2013-03-12 12:51:00,64.2,43.5,29.67,East,90,1.7,-999.0,47,-99.99,,,0.28,Acu-Link.com,2013-03-12 16:51:00,
2013-03-12 13:51:00,68.4,39.7,29.68,West,270,3.7,-999.0,35,-99.99,,,0.28,Acu-Link.com,2013-03-12 17:51:00,
2013-03-12 14:06:00,68.9,33.5,29.67,NNW,337,2.2,-999.0,27,-99.99,,,0.28,Acu-Link.com,2013-03-12 18:06:00,
2013-03-12 14:36:00,68.5,25.8,29.68,ESE,112,1.7,-999.0,20,-99.99,,,0.28,Acu-Link.com,2013-03-12 18:36:00,
2013-03-12 14:52:00,66.4,28.5,29.68,West,270,3.2,-999.0,24,-99.99,,,0.28,Acu-Link.com,2013-03-12 18:52:00,
2013-03-12 15:07:00,68.5,27.0,29.67,WSW,247,3.2,-999.0,21,-99.99,,,0.28,Acu-Link.com,2013-03-12 19:07:00,
2013-03-12 15:22:00,68.9,24.9,29.67,ESE,112,2.2,-999.0,19,-99.99,,,0.28,Acu-Link.com,2013-03-12 19:22:00,
2013-03-12 15:37:00,67.6,11.2,29.67,ESE,112,1.7,-999.0,11,-99.99,,,0.28,Acu-Link.com,2013-03-12 19:37:00,
2013-03-12 15:52:00,68.7,17.6,29.67,West,270,3.7,-999.0,14,-99.99,,,0.28,Acu-Link.com,2013-03-12 19:52:00,
2013-03-12 16:07:00,68.7,15.9,29.66,West,270,1.7,-999.0,13,-99.99,,,0.28,Acu-Link.com,2013-03-12 20:07:00,
2013-03-12 16:22:00,68.7,17.6,29.67,NW,315,1.7,-999.0,14,-99.99,,,0.28,Acu-Link.com,2013-03-12 20:22:00,
2013-03-12 16:52:00,67.5,14.9,29.68,SW,225,3.2,-999.0,13,-99.99,,,0.28,Acu-Link.com,2013-03-12 20:52:00,
2013-03-12 17:08:00,68.4,15.7,29.68,SSW,202,3.7,-999.0,13,-99.99,,,0.28,Acu-Link.com,2013-03-12 21:08:00,
2013-03-12 17:23:00,67.1,23.5,29.68,ESE,112,1.7,-999.0,19,-99.99,,,0.28,Acu-Link.com,2013-03-12 21:23:00,
2013-03-12 17:53:00,65.7,22.3,29.68,SE,135,2.2,-999.0,19,-99.99,,,0.28,Acu-Link.com,2013-03-12 21:53:00,
2013-03-12 18:08:00,65.5,22.2,29.68,South,180,1.1,-999.0,19,-99.99,,,0.28,Acu-Link.com,2013-03-12 22:08:00,
2013-03-12 18:23:00,64.2,18.5,29.69,SSE,157,1.1,-999.0,17,-99.99,,,0.28,Acu-Link.com,2013-03-12 22:23:00,
2013-03-12 18:38:00,62.8,17.4,29.70,WNW,292,1.1,-999.0,17,-99.99,,,0.28,Acu-Link.com,2013-03-12 22:38:00,
2013-03-12 18:53:00,61.2,18.6,29.70,WNW,292,2.7,-999.0,19,-99.99,,,0.28,Acu-Link.com,2013-03-12 22:53:00,
2013-03-12 19:08:00,60.1,16.5,29.71,SSW,202,1.1,-999.0,18,-99.99,,,0.28,Acu-Link.com,2013-03-12 23:08:00,
2013-03-12 19:24:00,59.0,14.3,29.72,ENE,67,2.2,-999.0,17,-99.99,,,0.28,Acu-Link.com,2013-03-12 23:24:00,
2013-03-12 19:39:00,57.9,19.3,29.74,SW,225,2.2,-999.0,22,-99.99,,,0.28,Acu-Link.com,2013-03-12 23:39:00,
2013-03-12 19:54:00,56.7,20.3,29.74,NNE,22,0.0,-999.0,24,-99.99,,,0.28,Acu-Link.com,2013-03-12 23:54:00,
2013-03-12 20:09:00,55.8,21.4,29.75,West,270,1.1,-999.0,26,-99.99,,,0.28,Acu-Link.com,2013-03-13 00:09:00,
2013-03-12 20:24:00,54.3,23.5,29.76,SE,135,0.0,-999.0,30,-99.99,,,0.28,Acu-Link.com,2013-03-13 00:24:00,
2013-03-12 20:39:00,53.2,23.4,29.76,ESE,112,0.0,-999.0,31,-99.99,,,0.28,Acu-Link.com,2013-03-13 00:39:00,
2013-03-12 20:54:00,52.3,21.8,29.77,NNW,337,0.0,-999.0,30,-99.99,,,0.28,Acu-Link.com,2013-03-13 00:54:00,
2013-03-12 21:09:00,51.6,20.4,29.76,SE,135,1.1,-999.0,29,-99.99,,,0.28,Acu-Link.com,2013-03-13 01:09:00,
2013-03-12 21:24:00,51.3,20.1,29.77,SSW,202,0.0,-999.0,29,-99.99,,,0.28,Acu-Link.com,2013-03-13 01:24:00,
2013-03-12 21:40:00,50.9,21.4,29.78,South,180,0.0,-999.0,31,-99.99,,,0.28,Acu-Link.com,2013-03-13 01:40:00,
2013-03-12 21:55:00,50.4,21.7,29.78,ESE,112,0.0,-999.0,32,-99.99,,,0.28,Acu-Link.com,2013-03-13 01:55:00,
2013-03-12 22:10:00,49.5,22.3,29.79,NNW,337,0.0,-999.0,34,-99.99,,,0.28,Acu-Link.com,2013-03-13 02:10:00,
2013-03-12 22:25:00,48.6,22.9,29.79,NNE,22,0.0,-999.0,36,-99.99,,,0.28,Acu-Link.com,2013-03-13 02:25:00,
2013-03-12 22:40:00,48.0,23.6,29.80,North,0,0.0,-999.0,38,-99.99,,,0.28,Acu-Link.com,2013-03-13 02:40:00,
2013-03-12 22:55:00,46.9,22.6,29.81,WNW,292,0.0,-999.0,38,-99.99,,,0.28,Acu-Link.com,2013-03-13 02:55:00,
2013-03-12 23:10:00,46.2,23.8,29.81,NW,315,0.0,-999.0,41,-99.99,,,0.28,Acu-Link.com,2013-03-13 03:10:00,
2013-03-12 23:26:00,45.3,24.7,29.82,WSW,247,0.0,-999.0,44,-99.99,,,0.28,Acu-Link.com,2013-03-13 03:26:00,
2013-03-12 23:41:00,44.4,24.9,29.82,WSW,247,0.0,-999.0,46,-99.99,,,0.28,Acu-Link.com,2013-03-13 03:41:00,